Simultaneous Nadir Overpasses (SNOs) Predictions

Prediction of SNOs between METOP-A and TERRA Satellite Orbit:

Table of predicted SNOs for the next 14.0 days since TLE Epoch: 2/22/2020
Index Date (METOP-A) Time (METOP-A) Lat,Lon (METOP-A) SZA (METOP-A ) Date (TERRA) Time (TERRA) Lat,Lon (TERRA) SZA (TERRA ) Distance(km) Time Diff (sec)
1 02/24/2020 00:36:29 -81.44, 40.34 86.29 02/24/2020 00:36:36 -81.43, 40.40 86.29 1.58 7
2 02/24/2020 01:27:09 81.43,-151.93 93.74 02/24/2020 01:26:02 81.43,-151.86 93.72 1.11 67
3 02/26/2020 19:20:12 81.44, -60.80 92.68 02/26/2020 19:21:24 81.43, -60.76 92.71 1.51 72
4 02/26/2020 20:10:52 -81.44, 106.77 87.32 02/26/2020 20:10:51 -81.43, 106.83 87.32 1.47 1
5 02/26/2020 21:01:19 81.29, -80.42 93.19 02/26/2020 21:00:11 81.53, -83.09 93.01 51.56 68
6 02/29/2020 14:54:34 81.43, 6.00 91.67 02/29/2020 14:55:37 81.43, 5.82 91.68 3.02 63
7 02/29/2020 15:45:14 -81.43, 173.59 88.32 02/29/2020 15:45:04 -81.43, 173.43 88.34 2.62 10
8 03/03/2020 10:28:57 81.44, 71.98 90.58 03/03/2020 10:29:48 81.43, 72.17 90.62 3.24 51
9 03/03/2020 11:19:36 -81.43,-120.02 89.38 03/03/2020 11:19:15 -81.43,-120.19 89.40 2.97 21
10 03/06/2020 06:03:19 81.43, 138.74 89.55 03/06/2020 06:03:58 81.43, 138.68 89.56 0.96 39




NCC Satellite Simultaneous Nadir Overpasses (SNOs) Prediction Service
